When you browse on this site, cookies collect data to enhance your experience and personalize the content and advertising you see.
Visit our Privacy Policy to learn more. By continuing to use the site, you agree to this use of cookies and data.
  • In Hungary
  • List of Countries
  • For 7 days
  • Water Temperature
  • Weather Map
  • News
  • Weather Widgets
  • user-avatar
    Login

    Hourly Weather Dlugochorzele

    Today, 7 April, Tuesday

    Time Temperature Precipitation Wind Pressure Humidity
    00:00 +5°C° 0 mm 3 mps 761 mmHg 62%
    01:00 +5°C° 0 mm 3 mps 760 mmHg 59%
    02:00 +5°C° 0 mm 3 mps 760 mmHg 62%
    03:00 +4°C° 0 mm 3 mps 760 mmHg 65%
    04:00 +4°C° 0 mm 3 mps 760 mmHg 69%
    05:00 +5°C° 0 mm 3 mps 760 mmHg 68%
    06:00 +6°C° 0 mm 4 mps 760 mmHg 68%
    07:00 +7°C° 0 mm 4 mps 760 mmHg 64%
    08:00 +10°C° 0 mm 4 mps 760 mmHg 58%
    09:00 +12°C° 0 mm 5 mps 760 mmHg 53%
    10:00 +15°C° 0 mm 5 mps 760 mmHg 48%
    11:00 +16°C° 0 mm 6 mps 760 mmHg 43%
    12:00 +17°C° 0 mm 6 mps 759 mmHg 38%
    13:00 +20°C° 0 mm 6 mps 759 mmHg 33%
    14:00 +19°C° 0 mm 6 mps 759 mmHg 36%
    15:00 +19°C° 0 mm 5 mps 758 mmHg 39%
    16:00 +19°C° 0 mm 5 mps 758 mmHg 42%
    17:00 +16°C° 0 mm 5 mps 758 mmHg 51%
    18:00 +14°C° 0 mm 5 mps 759 mmHg 60%
    19:00 +12°C° 0 mm 5 mps 759 mmHg 68%
    20:00 +10°C° 0 mm 4 mps 759 mmHg 69%
    21:00 +8°C° 0 mm 4 mps 759 mmHg 70%
    22:00 +7°C° 0 mm 3 mps 760 mmHg 71%
    23:00 +5°C° 0 mm 3 mps 760 mmHg 74%

    Tomorrow, 8 April, Wednesday

    Time Temperature Precipitation Wind Pressure Humidity
    00:00 +5°C° 0 mm 3 mps 760 mmHg 77%
    01:00 +4°C° 0 mm 3 mps 761 mmHg 81%
    02:00 +5°C° 0 mm 2 mps 761 mmHg 82%
    03:00 +4°C° 0 mm 2 mps 761 mmHg 82%
    04:00 +4°C° 0 mm 2 mps 761 mmHg 83%
    05:00 +5°C° 0 mm 2 mps 761 mmHg 80%
    06:00 +6°C° 0 mm 2 mps 761 mmHg 77%
    07:00 +7°C° 0 mm 2 mps 761 mmHg 74%
    08:00 +10°C° 0 mm 1 mps 761 mmHg 66%
    09:00 +12°C° 0 mm 1 mps 761 mmHg 59%
    10:00 +13°C° 0 mm 1 mps 761 mmHg 51%
    11:00 +15°C° 0 mm 1 mps 760 mmHg 47%
    12:00 +16°C° 0 mm 1 mps 760 mmHg 43%
    13:00 +16°C° 0 mm 0 mps 760 mmHg 40%
    14:00 +15°C° 0 mm 0 mps 759 mmHg 39%
    15:00 +15°C° 0 mm 0 mps 759 mmHg 39%
    16:00 +16°C° 0 mm 1 mps 758 mmHg 39%
    17:00 +15°C° 0 mm 1 mps 758 mmHg 44%
    18:00 +13°C° 0 mm 1 mps 757 mmHg 49%
    19:00 +11°C° 0 mm 1 mps 757 mmHg 54%
    20:00 +11°C° 0 mm 1 mps 757 mmHg 56%
    21:00 +9°C° 0 mm 2 mps 756 mmHg 58%
    22:00 +9°C° 0 mm 2 mps 756 mmHg 59%
    23:00 +8°C° 0 mm 2 mps 755 mmHg 60%

    Day after tomorrow, 9 April, Thursday

    Time Temperature Precipitation Wind Pressure Humidity
    00:00 +8°C° 0 mm 2 mps 755 mmHg 61%
    01:00 +7°C° 0 mm 3 mps 754 mmHg 61%
    02:00 +7°C° 0 mm 3 mps 754 mmHg 63%
    03:00 +7°C° 0 mm 3 mps 753 mmHg 65%
    04:00 +5°C° 0 mm 3 mps 753 mmHg 67%
    05:00 +8°C° 0 mm 3 mps 752 mmHg 69%
    06:00 +9°C° 0 mm 3 mps 752 mmHg 70%
    07:00 +10°C° 0 mm 4 mps 751 mmHg 72%
    08:00 +12°C° 0 mm 4 mps 751 mmHg 67%
    09:00 +14°C° 0 mm 5 mps 751 mmHg 61%
    10:00 +16°C° 0 mm 6 mps 750 mmHg 56%
    11:00 +15°C° 0.3 mm 6 mps 750 mmHg 63%
    12:00 +13°C° 0.3 mm 5 mps 750 mmHg 71%
    13:00 +12°C° 0.3 mm 5 mps 750 mmHg 79%
    14:00 +12°C° 0.3 mm 5 mps 750 mmHg 75%
    15:00 +11°C° 0.3 mm 6 mps 750 mmHg 71%
    16:00 +11°C° 0.3 mm 6 mps 750 mmHg 67%
    17:00 +9°C° 0 mm 6 mps 750 mmHg 73%
    18:00 +8°C° 0 mm 5 mps 750 mmHg 79%
    19:00 +6°C° 0 mm 5 mps 751 mmHg 85%
    20:00 +6°C° 0 mm 4 mps 751 mmHg 85%
    21:00 +5°C° 0 mm 4 mps 752 mmHg 86%
    22:00 +4°C° 0 mm 4 mps 752 mmHg 86%
    23:00 +4°C° 0 mm 4 mps 752 mmHg 87%

    10 April, Friday

    Time Temperature Precipitation Wind Pressure Humidity
    00:00 +3°C° 0 mm 4 mps 753 mmHg 88%
    01:00 +1°C° 0 mm 4 mps 753 mmHg 89%
    02:00 +2°C° 0 mm 3 mps 753 mmHg 87%
    03:00 +1°C° 0 mm 3 mps 754 mmHg 85%
    04:00 0°C° 0 mm 3 mps 754 mmHg 82%
    05:00 +1°C° 0 mm 3 mps 754 mmHg 77%
    06:00 +2°C° 0 mm 3 mps 755 mmHg 71%
    07:00 +4°C° 0 mm 3 mps 755 mmHg 65%
    08:00 +5°C° 0 mm 4 mps 755 mmHg 58%
    09:00 +7°C° 0 mm 4 mps 755 mmHg 51%
    10:00 +8°C° 0 mm 5 mps 755 mmHg 44%
    11:00 +9°C° 0 mm 5 mps 755 mmHg 43%
    12:00 +9°C° 0 mm 5 mps 755 mmHg 43%
    13:00 +10°C° 0 mm 5 mps 755 mmHg 42%
    14:00 +9°C° 0 mm 5 mps 755 mmHg 43%
    15:00 +9°C° 0 mm 5 mps 755 mmHg 44%
    16:00 +9°C° 0 mm 5 mps 755 mmHg 45%
    17:00 +7°C° 0 mm 5 mps 755 mmHg 50%
    18:00 +5°C° 0 mm 4 mps 755 mmHg 55%
    19:00 +4°C° 0 mm 3 mps 755 mmHg 60%
    20:00 +3°C° 0 mm 3 mps 755 mmHg 65%
    21:00 +2°C° 0 mm 3 mps 756 mmHg 70%
    22:00 +2°C° 0 mm 2 mps 756 mmHg 76%
    23:00 +2°C° 0 mm 2 mps 756 mmHg 76%

    11 April, Saturday

    Time Temperature Precipitation Wind Pressure Humidity
    00:00 +1°C° 0 mm 2 mps 756 mmHg 76%
    01:00 +1°C° 0 mm 2 mps 757 mmHg 76%
    02:00 +1°C° 0 mm 2 mps 757 mmHg 76%
    03:00 +1°C° 0 mm 2 mps 757 mmHg 75%
    04:00 -1°C° 0 mm 2 mps 757 mmHg 75%
    05:00 +1°C° 0 mm 2 mps 758 mmHg 68%
    06:00 +2°C° 0 mm 2 mps 758 mmHg 61%
    07:00 +3°C° 0 mm 2 mps 758 mmHg 54%
    08:00 +5°C° 0 mm 2 mps 758 mmHg 48%
    09:00 +6°C° 0 mm 2 mps 758 mmHg 43%
    10:00 +7°C° 0 mm 2 mps 759 mmHg 38%
    11:00 +8°C° 0 mm 2 mps 758 mmHg 37%
    12:00 +8°C° 0 mm 2 mps 758 mmHg 36%
    13:00 +10°C° 0 mm 1 mps 758 mmHg 35%
    14:00 +10°C° 0 mm 1 mps 758 mmHg 36%
    15:00 +10°C° 0 mm 1 mps 757 mmHg 37%
    16:00 +9°C° 0 mm 1 mps 757 mmHg 37%
    17:00 +8°C° 0 mm 1 mps 757 mmHg 41%
    18:00 +7°C° 0 mm 1 mps 757 mmHg 46%
    19:00 +5°C° 0 mm 2 mps 757 mmHg 50%
    20:00 +4°C° 0 mm 2 mps 757 mmHg 51%
    21:00 +4°C° 0 mm 2 mps 757 mmHg 53%
    22:00 +2°C° 0 mm 3 mps 757 mmHg 55%
    23:00 +2°C° 0 mm 3 mps 757 mmHg 55%

    12 April, Sunday

    Time Temperature Precipitation Wind Pressure Humidity
    00:00 +2°C° 0 mm 3 mps 756 mmHg 56%
    01:00 +2°C° 0 mm 3 mps 756 mmHg 56%
    02:00 +1°C° 0 mm 4 mps 756 mmHg 57%
    03:00 0°C° 0 mm 4 mps 755 mmHg 59%
    04:00 0°C° 0 mm 4 mps 755 mmHg 60%
    05:00 +1°C° 0 mm 5 mps 755 mmHg 58%
    06:00 +2°C° 0 mm 5 mps 754 mmHg 55%
    07:00 +3°C° 0 mm 6 mps 754 mmHg 53%
    08:00 +5°C° 0 mm 6 mps 753 mmHg 51%
    09:00 +8°C° 0 mm 6 mps 753 mmHg 49%
    10:00 +10°C° 0 mm 6 mps 752 mmHg 46%
    11:00 +11°C° 0 mm 6 mps 752 mmHg 45%
    12:00 +13°C° 0 mm 6 mps 751 mmHg 45%
    13:00 +14°C° 0 mm 6 mps 751 mmHg 44%
    14:00 +14°C° 0 mm 6 mps 750 mmHg 44%
    15:00 +15°C° 0 mm 5 mps 749 mmHg 45%
    16:00 +15°C° 0 mm 5 mps 749 mmHg 46%
    17:00 +13°C° 0 mm 5 mps 748 mmHg 52%
    18:00 +11°C° 0 mm 4 mps 748 mmHg 59%
    19:00 +10°C° 0 mm 3 mps 747 mmHg 65%
    20:00 +8°C° 0 mm 4 mps 747 mmHg 65%
    21:00 +8°C° 0 mm 4 mps 746 mmHg 65%
    22:00 +8°C° 0 mm 4 mps 746 mmHg 64%
    23:00 +7°C° 0 mm 4 mps 746 mmHg 66%
    Show more